This demonstration page uses our WeatherBlox Daily Observations layout. Learn more.

Left ArrowRight Arrow

Hourly Observations for December 2, 2022

Temp ( °F °C ) Dew Point ( °F °C ) Humidity (%) Winds ( mph kmh ) Pressure ( in mb ) Visibility ( mi km ) Precip ( " mm )
12:53 am 00:53 Clear 40 4.4 27 -2.8 59 59 S 13 20 29.69 1006 10 16 0.00 0.00
1:53 am 01:53 Clear 37 2.8 26 -3.3 64 64 S 14 22 29.65 1004 10 16 0.00 0.00
2:53 am 02:53 Clear 36 2.2 26 -3.3 67 67 S 13 20 29.63 1004 10 16 0.00 0.00
3:53 am 03:53 Clear 36 2.2 27 -2.8 69 69 S 13 20 29.61 1003 10 16 0.00 0.00
4:53 am 04:53 Clear 35 1.7 27 -2.8 72 72 S 12 19 29.58 1002 10 16 0.00 0.00
5:53 am 05:53 Clear 37 2.8 28 -2.2 70 70 S 13 20 29.57 1001 10 16 0.00 0.00
6:53 am 06:53 Clear 37 2.8 29 -1.7 72 72 S 13 20 29.57 1001 10 16 0.00 0.00
7:53 am 07:53 Sunny 36 2.2 29 -1.7 75 75 S 3 6 29.55 1001 10 16 0.00 0.00
8:53 am 08:53 Sunny 37 2.8 30 -1.1 75 75 undefined N/A 29.57 1001 10 16 0.00 0.00
9:53 am 09:53 Sunny 43 6.1 31 -0.6 62 62 SSW 13 20 29.55 1001 10 16 0.00 0.00
10:53 am 10:53 Sunny 48 8.9 32 0 54 54 SSW 8 13 29.53 1000 10 16 0.00 0.00
11:53 am 11:53 Sunny 53 11.7 31 -0.6 43 43 SW 6 9 29.50 999 9 14 0.00 0.00
12:53 pm 12:53 Sunny 58 14.4 28 -2.2 32 32 WNW 15 24 29.53 1000 10 16 0.00 0.00
1:53 pm 13:53 Sunny 52 11.1 30 -1.1 43 43 N 26 43 29.62 1003 10 16 0.00 0.00
2:53 pm 14:53 Sunny 45 7.2 26 -3.3 47 47 N 26 43 29.72 1007 10 16 0.00 0.00
3:53 pm 15:53 Sunny 37 2.8 21 -6.1 52 52 NNW 31 50 29.87 1012 10 16 0.00 0.00
4:53 pm 16:53 Sunny 30 -1.1 16 -8.9 55 55 NNW 29 46 29.97 1015 10 16 0.00 0.00
5:53 pm 17:53 Clear 27 -2.8 15 -9.4 60 60 NNW 29 46 30.10 1019 10 16 0.00 0.00
6:53 pm 18:53 Clear 25 -3.9 13 -10.6 60 60 NNW 25 41 30.16 1022 10 16 0.00 0.00
7:53 pm 19:53 Mostly Clear 24 -4.4 12 -11.1 59 59 NNW 24 39 30.22 1023 10 16 0.00 0.00
8:53 pm 20:53 Clear 21 -6.1 10 -12.2 62 62 NNW 23 37 30.30 1026 10 16 0.00 0.00
9:53 pm 21:53 Clear 20 -6.7 7 -13.9 56 56 NNW 24 39 30.35 1028 10 16 0.00 0.00
10:53 pm 22:53 Clear 18 -7.8 7 -13.9 61 61 NNW 17 28 30.38 1029 10 16 0.00 0.00
11:53 pm 23:53 Clear 17 -8.3 8 -13.3 67 67 NNW 16 26 30.40 1029 10 16 0.00 0.00

Powered by AerisWeather